,,,PA_Meas_PMT16A,,PR_Meas_QMR101_102,,RH_Meas_QMH101,,SR_Meas_QMS101,,TA_Meas_QMH101,,GenWind,,GenWind,
date,time,status,PA,status,PR,status,RH,status,SR,status,TA,status,DirAvg,status,SpdAvg,
2011-06-10, 00:00:04,VALID,999.139,VALID,0,VALID,91.998,VALID,0,VALID,23.2719,VALID,68,VALID,0,
2011-06-10, 00:01:04,VALID,999.135,VALID,0,VALID,92.059,VALID,0.112286,VALID,23.2312,VALID,42,VALID,0,
2011-06-10, 00:02:04,VALID,999.134,VALID,0,VALID,92.1277,VALID,0,VALID,23.2329,VALID,32,VALID,0.852344,
2011-06-10, 00:03:04,VALID,999.114,VALID,0,VALID,92.1658,VALID,0,VALID,23.2134,VALID,32,VALID,0.798437,
2011-06-10, 00:04:04,VALID,999.095,VALID,0,VALID,92.2116,VALID,0,VALID,23.1726,VALID,32,VALID,0.818359,
2011-06-10, 00:05:04,VALID,999.065,VALID,0,VALID,92.265,VALID,0,VALID,23.1531,VALID,32,VALID,0.839844,
2011-06-10, 00:06:04,VALID,999.062,VALID,0,VALID,92.3337,VALID,0,VALID,23.1354,VALID,32,VALID,0.727734,
2011-06-10, 00:07:04,VALID,999.068,VALID,0,VALID,92.3566,VALID,0,VALID,23.1354,VALID,32,VALID,0.433203,
2011-06-10, 00:08:04,VALID,999.035,VALID,0,VALID,92.41,VALID,0,VALID,23.1159,VALID,32,VALID,0.265234,
2011-06-10, 00:09:04,VALID,999.045,VALID,0,VALID,92.4481,VALID,0,VALID,23.0751,VALID,32,VALID,0.228516,
2011-06-10, 00:10:04,VALID,999.031,VALID,0,VALID,92.471,VALID,0,VALID,23.0556,VALID,32,VALID,0.217578,
2011-06-10, 00:11:04,VALID,999.027,VALID,0,VALID,92.5473,VALID,0,VALID,23.0964,VALID,32,VALID,0,
2011-06-10, 00:12:04,VALID,998.997,VALID,0,VALID,92.6083,VALID,0,VALID,23.0751,VALID,32,VALID,0,
2011-06-10, 00:13:04,VALID,999.001,VALID,0,VALID,92.6541,VALID,0,VALID,23.0751,VALID,32,VALID,0,
2011-06-10, 00:14:04,VALID,998.997,VALID,0,VALID,92.6617,VALID,0,VALID,23.0769,VALID,32,VALID,0,
2011-06-10, 00:15:04,VALID,998.979,VALID,0,VALID,92.7304,VALID,0,VALID,23.0769,VALID,32,VALID,0,
2011-06-10, 00:16:04,VALID,998.986,VALID,0,VALID,92.738,VALID,0,VALID,23.0751,VALID,32,VALID,0,
2011-06-10, 00:17:04,VALID,998.961,VALID,0,VALID,92.7457,VALID,0,VALID,23.1159,VALID,32,VALID,0,
2011-06-10, 00:18:04,VALID,998.957,VALID,0,VALID,92.7762,VALID,0,VALID,23.0964,VALID,32,VALID,0,
2011-06-10, 00:19:05,VALID,998.942,VALID,0,VALID,92.7762,VALID,0,VALID,23.0964,VALID,32,VALID,0.0671875,
2011-06-10, 00:20:05,VALID,998.91,VALID,0,VALID,92.7838,VALID,0,VALID,23.0964,VALID,29,VALID,0.834375,
2011-06-10, 00:21:05,VALID,998.905,VALID,0,VALID,92.7533,VALID,0,VALID,23.1159,VALID,25,VALID,1.01484,
2011-06-10, 00:22:05,VALID,998.917,VALID,0,VALID,92.7838,VALID,0.112286,VALID,23.0964,VALID,24,VALID,0.957422,
2011-06-10, 00:23:05,VALID,998.871,VALID,0,VALID,92.7609,VALID,0,VALID,23.0946,VALID,24,VALID,0.844531,
2011-06-10, 00:24:05,VALID,998.85,VALID,0,VALID,92.7457,VALID,0,VALID,23.0964,VALID,24,VALID,0.822656,
2011-06-10, 00:25:05,VALID,998.817,VALID,0,VALID,92.7685,VALID,0.112286,VALID,23.1159,VALID,24,VALID,0.752734,
2011-06-10, 00:26:05,VALID,998.823,VALID,0,VALID,92.7457,VALID,0,VALID,23.0946,VALID,24,VALID,0.676172,
2011-06-10, 00:27:05,VALID,998.816,VALID,0,VALID,92.7304,VALID,0,VALID,23.0946,VALID,24,VALID,0.748828,
2011-06-10, 00:28:05,VALID,998.811,VALID,0,VALID,92.7228,VALID,0,VALID,23.0964,VALID,24,VALID,0.772656,
2011-06-10, 00:29:05,VALID,998.82,VALID,0,VALID,92.7228,VALID,0,VALID,23.0751,VALID,24,VALID,0.879297,
2011-06-10, 00:30:05,VALID,998.788,VALID,0,VALID,92.7228,VALID,0,VALID,23.0751,VALID,24,VALID,0.761719,
2011-06-10, 00:31:05,VALID,998.784,VALID,0,VALID,92.7304,VALID,0,VALID,23.0964,VALID,24,VALID,0.731641,
2011-06-10, 00:32:05,VALID,998.773,VALID,0,VALID,92.7533,VALID,0,VALID,23.0964,VALID,24,VALID,0.515234,
2011-06-10, 00:33:05,VALID,998.768,VALID,0,VALID,92.7838,VALID,0,VALID,23.0964,VALID,24,VALID,0.419531,
2011-06-10, 00:34:05,VALID,998.772,VALID,0,VALID,92.7838,VALID,0,VALID,23.1354,VALID,24,VALID,0.298438,
2011-06-10, 00:35:05,VALID,998.758,VALID,0,VALID,92.8143,VALID,0,VALID,23.1549,VALID,24,VALID,0.241797,
2011-06-10, 00:36:05,VALID,998.751,VALID,0,VALID,92.8143,VALID,0,VALID,23.1531,VALID,24,VALID,0,
2011-06-10, 00:37:05,VALID,998.764,VALID,0,VALID,92.8372,VALID,0,VALID,23.1744,VALID,24,VALID,0,
2011-06-10, 00:38:05,VALID,998.736,VALID,0,VALID,92.8372,VALID,0,VALID,23.1744,VALID,24,VALID,0,
2011-06-10, 00:39:05,VALID,998.681,VALID,0,VALID,92.8296,VALID,0,VALID,23.1939,VALID,24,VALID,0,
2011-06-10, 00:40:05,VALID,998.685,VALID,0,VALID,92.8296,VALID,0,VALID,23.1726,VALID,24,VALID,0,
2011-06-10, 00:41:05,VALID,998.653,VALID,0,VALID,92.822,VALID,0,VALID,23.1531,VALID,24,VALID,0,
2011-06-10, 00:42:05,VALID,998.648,VALID,0,VALID,92.8067,VALID,0,VALID,23.1531,VALID,24,VALID,0,
2011-06-10, 00:43:05,VALID,998.605,VALID,0,VALID,92.8067,VALID,0,VALID,23.1336,VALID,24,VALID,0,
2011-06-10, 00:44:05,VALID,998.626,VALID,0,VALID,92.7685,VALID,0,VALID,23.1336,VALID,24,VALID,0,
2011-06-10, 00:45:05,VALID,998.602,VALID,0,VALID,92.7838,VALID,0,VALID,23.1549,VALID,24,VALID,0,
2011-06-10, 00:46:05,VALID,998.575,VALID,0,VALID,92.7762,VALID,0,VALID,23.1762,VALID,24,VALID,0,
2011-06-10, 00:47:05,VALID,998.573,VALID,0,VALID,92.7533,VALID,0,VALID,23.1957,VALID,24,VALID,0,
2011-06-10, 00:48:05,VALID,998.533,VALID,0,VALID,92.6999,VALID,0,VALID,23.1939,VALID,49,VALID,0,
2011-06-10, 00:49:05,VALID,998.547,VALID,0,VALID,92.6617,VALID,0,VALID,23.1957,VALID,55,VALID,0,
2011-06-10, 00:50:05,VALID,998.495,VALID,0,VALID,92.5931,VALID,0,VALID,23.1957,VALID,55,VALID,0,
2011-06-10, 00:51:05,VALID,998.523,VALID,0,VALID,92.5091,VALID,0,VALID,23.1566,VALID,55,VALID,0,
2011-06-10, 00:52:05,VALID,998.481,VALID,0,VALID,92.4481,VALID,0,VALID,23.1566,VALID,55,VALID,0,
2011-06-10, 00:53:05,VALID,998.49,VALID,0,VALID,92.3947,VALID,0,VALID,23.1176,VALID,55,VALID,0,
2011-06-10, 00:54:05,VALID,998.479,VALID,0,VALID,92.3642,VALID,0,VALID,23.0981,VALID,55,VALID,0,
2011-06-10, 00:55:05,VALID,998.458,VALID,0,VALID,92.3642,VALID,0,VALID,23.0573,VALID,55,VALID,0,
2011-06-10, 00:56:05,VALID,998.408,VALID,0,VALID,92.3871,VALID,0,VALID,23.0573,VALID,55,VALID,0,
2011-06-10, 00:57:05,VALID,998.397,VALID,0,VALID,92.4176,VALID,0,VALID,23.0591,VALID,55,VALID,0,
2011-06-10, 00:58:05,VALID,998.393,VALID,0,VALID,92.4786,VALID,0,VALID,23.0786,VALID,55,VALID,0,
2011-06-10, 00:59:05,VALID,998.37,VALID,0,VALID,92.5244,VALID,0,VALID,23.0786,VALID,55,VALID,0,
2011-06-10, 01:00:05,VALID,998.371,VALID,0,VALID,92.5626,VALID,0.112286,VALID,23.0769,VALID,55,VALID,0,
2011-06-10, 01:01:05,VALID,998.372,VALID,0,VALID,92.5549,VALID,0,VALID,23.0573,VALID,55,VALID,0,
2011-06-10, 01:02:05,VALID,998.385,VALID,0,VALID,92.5854,VALID,0,VALID,23.0378,VALID,133,VALID,0.591016,
2011-06-10, 01:03:05,VALID,998.374,VALID,0,VALID,92.6388,VALID,0,VALID,23.0573,VALID,136,VALID,0.885547,
2011-06-10, 01:04:05,VALID,998.348,VALID,0,VALID,92.6999,VALID,0,VALID,23.0964,VALID,136,VALID,0.943359,
2011-06-10, 01:05:05,VALID,998.358,VALID,0,VALID,92.7762,VALID,0,VALID,23.1354,VALID,136,VALID,0.866797,
2011-06-10, 01:06:05,VALID,998.349,VALID,0,VALID,92.7991,VALID,0,VALID,23.1141,VALID,157,VALID,0.781641,
2011-06-10, 01:07:05,VALID,998.336,VALID,0,VALID,92.8296,VALID,0,VALID,23.1744,VALID,158,VALID,0.972266,
2011-06-10, 01:08:05,VALID,998.322,VALID,0,VALID,92.8601,VALID,0,VALID,23.1744,VALID,158,VALID,0.68125,
2011-06-10, 01:09:05,VALID,998.297,VALID,0,VALID,92.8983,VALID,0,VALID,23.1336,VALID,158,VALID,0.730078,
2011-06-10, 01:10:05,VALID,998.325,VALID,0,VALID,92.9059,VALID,0,VALID,23.1531,VALID,148,VALID,0.861719,
2011-06-10, 01:11:05,VALID,998.278,VALID,0,VALID,92.944,VALID,0,VALID,23.1744,VALID,148,VALID,0.954297,
2011-06-10, 01:12:05,VALID,998.292,VALID,0,VALID,92.9669,VALID,0,VALID,23.1531,VALID,148,VALID,0.927734,
2011-06-10, 01:13:05,VALID,998.278,VALID,0,VALID,92.9745,VALID,0,VALID,23.1939,VALID,148,VALID,0.780469,
2011-06-10, 01:14:05,VALID,998.292,VALID,0,VALID,93.0051,VALID,0,VALID,23.2134,VALID,148,VALID,0.620703,
2011-06-10, 01:15:05,VALID,998.236,VALID,0,VALID,93.0356,VALID,0,VALID,23.2134,VALID,148,VALID,0.460938,
2011-06-10, 01:16:05,VALID,998.266,VALID,0,VALID,93.0432,VALID,0,VALID,23.2329,VALID,148,VALID,0.479297,
2011-06-10, 01:17:05,VALID,998.27,VALID,0,VALID,93.0203,VALID,0,VALID,23.2329,VALID,148,VALID,0.524219,
2011-06-10, 01:18:05,VALID,998.242,VALID,0,VALID,93.0585,VALID,0,VALID,23.2117,VALID,148,VALID,0.419922,
2011-06-10, 01:19:05,VALID,998.244,VALID,0,VALID,93.0356,VALID,0,VALID,23.2117,VALID,148,VALID,0.3875,
2011-06-10, 01:20:05,VALID,998.234,VALID,0,VALID,93.0356,VALID,0,VALID,23.2117,VALID,148,VALID,0.373047,
2011-06-10, 01:21:05,VALID,998.202,VALID,0,VALID,93.028,VALID,0,VALID,23.2524,VALID,148,VALID,0.478906,
2011-06-10, 01:22:05,VALID,998.204,VALID,0,VALID,93.0508,VALID,0,VALID,23.2524,VALID,148,VALID,0.660547,
2011-06-10, 01:23:05,VALID,998.202,VALID,0,VALID,93.0585,VALID,0.112286,VALID,23.2312,VALID,148,VALID,0.688672,
2011-06-10, 01:24:05,VALID,998.198,VALID,0,VALID,93.0508,VALID,0,VALID,23.2719,VALID,148,VALID,0.775781,
2011-06-10, 01:25:05,VALID,998.156,VALID,0,VALID,93.028,VALID,0,VALID,23.2719,VALID,148,VALID,0.642578,
2011-06-10, 01:26:05,VALID,998.169,VALID,0,VALID,93.0203,VALID,0,VALID,23.2507,VALID,148,VALID,0.601172,
2011-06-10, 01:27:05,VALID,998.143,VALID,0,VALID,92.9898,VALID,0,VALID,23.2312,VALID,148,VALID,0.513281,
2011-06-10, 01:28:05,VALID,998.113,VALID,0,VALID,92.9517,VALID,0,VALID,23.2329,VALID,148,VALID,0.307031,
2011-06-10, 01:29:05,VALID,998.107,VALID,0,VALID,92.9288,VALID,0,VALID,23.2134,VALID,148,VALID,0.283203,
2011-06-10, 01:30:05,VALID,998.127,VALID,0,VALID,92.9059,VALID,0,VALID,23.1939,VALID,148,VALID,0,
2011-06-10, 01:31:05,VALID,998.111,VALID,0,VALID,92.8906,VALID,0,VALID,23.1549,VALID,148,VALID,0,
2011-06-10, 01:32:05,VALID,998.087,VALID,0,VALID,92.8372,VALID,0,VALID,23.1141,VALID,148,VALID,0,
2011-06-10, 01:33:05,VALID,998.07,VALID,0,VALID,92.822,VALID,0,VALID,23.1159,VALID,148,VALID,0,
2011-06-10, 01:34:05,VALID,998.051,VALID,0,VALID,92.822,VALID,0,VALID,23.0946,VALID,148,VALID,0,
2011-06-10, 01:35:05,VALID,998.069,VALID,0,VALID,92.8525,VALID,0,VALID,23.0946,VALID,148,VALID,0,
2011-06-10, 01:36:05,VALID,998.028,VALID,0,VALID,92.8448,VALID,0,VALID,23.0964,VALID,148,VALID,0,
2011-06-10, 01:37:05,VALID,998.015,VALID,0,VALID,92.883,VALID,0,VALID,23.0769,VALID,148,VALID,0,
2011-06-10, 01:38:05,VALID,997.999,VALID,0,VALID,92.9211,VALID,0,VALID,23.0964,VALID,148,VALID,0,
2011-06-10, 01:39:05,VALID,998.017,VALID,0,VALID,92.9517,VALID,0,VALID,23.0751,VALID,148,VALID,0,
2011-06-10, 01:40:05,VALID,997.982,VALID,0,VALID,92.9822,VALID,0,VALID,23.0964,VALID,148,VALID,0,
2011-06-10, 01:41:05,VALID,997.975,VALID,0,VALID,93.0203,VALID,0,VALID,23.0751,VALID,148,VALID,0,
2011-06-10, 01:42:05,VALID,997.97,VALID,0,VALID,93.0661,VALID,0,VALID,23.0751,VALID,148,VALID,0,
2011-06-10, 01:43:05,VALID,997.962,VALID,0,VALID,93.0661,VALID,0,VALID,23.0751,VALID,148,VALID,0,
2011-06-10, 01:44:05,VALID,997.953,VALID,0,VALID,93.0966,VALID,0,VALID,23.0964,VALID,148,VALID,0,
2011-06-10, 01:45:05,VALID,997.927,VALID,0,VALID,93.1271,VALID,0,VALID,23.0751,VALID,148,VALID,0,
2011-06-10, 01:46:05,VALID,997.938,VALID,0,VALID,93.1271,VALID,0,VALID,23.0964,VALID,148,VALID,0,
2011-06-10, 01:47:05,VALID,997.915,VALID,0,VALID,93.1424,VALID,0,VALID,23.0964,VALID,148,VALID,0,
2011-06-10, 01:48:05,VALID,997.924,VALID,0,VALID,93.15,VALID,0,VALID,23.0769,VALID,148,VALID,0,
2011-06-10, 01:49:05,VALID,997.881,VALID,0,VALID,93.1653,VALID,0,VALID,23.0361,VALID,148,VALID,0,
2011-06-10, 01:50:05,VALID,997.865,VALID,0,VALID,93.1653,VALID,0,VALID,23.0573,VALID,148,VALID,0,
2011-06-10, 01:51:05,VALID,997.877,VALID,0,VALID,93.1729,VALID,0,VALID,23.0378,VALID,148,VALID,0,
2011-06-10, 01:52:05,VALID,997.853,VALID,0,VALID,93.1729,VALID,0,VALID,23.0183,VALID,148,VALID,0,
2011-06-10, 01:53:05,VALID,997.859,VALID,0,VALID,93.1805,VALID,0,VALID,23.0183,VALID,148,VALID,0,
2011-06-10, 01:54:05,VALID,997.847,VALID,0,VALID,93.1958,VALID,0,VALID,22.9988,VALID,148,VALID,0,
2011-06-10, 01:55:05,VALID,997.833,VALID,0,VALID,93.1805,VALID,0,VALID,22.9988,VALID,148,VALID,0,
2011-06-10, 01:56:05,VALID,997.814,VALID,0,VALID,93.1729,VALID,0,VALID,22.9793,VALID,148,VALID,0,
2011-06-10, 01:57:05,VALID,997.797,VALID,0,VALID,93.1882,VALID,0,VALID,22.9598,VALID,148,VALID,0.127344,
2011-06-10, 01:58:05,VALID,997.797,VALID,0,VALID,93.1729,VALID,0,VALID,22.9598,VALID,148,VALID,0.583984,
2011-06-10, 01:59:05,VALID,997.801,VALID,0,VALID,93.1729,VALID,0,VALID,22.9208,VALID,148,VALID,0.428125,
2011-06-10, 02:00:05,VALID,997.804,VALID,0,VALID,93.2111,VALID,0.112286,VALID,22.919,VALID,148,VALID,0.0195313,
2011-06-10, 02:01:05,VALID,997.794,VALID,0,VALID,93.1958,VALID,0,VALID,22.9208,VALID,148,VALID,0,
2011-06-10, 02:02:05,VALID,997.782,VALID,0,VALID,93.2034,VALID,0,VALID,22.9403,VALID,148,VALID,0,
2011-06-10, 02:03:05,VALID,997.805,VALID,0,VALID,93.2111,VALID,0.112286,VALID,22.919,VALID,148,VALID,0,
2011-06-10, 02:04:05,VALID,997.82,VALID,0,VALID,93.2416,VALID,0,VALID,22.9403,VALID,148,VALID,0,
2011-06-10, 02:05:05,VALID,997.798,VALID,0,VALID,93.2645,VALID,0,VALID,22.9403,VALID,148,VALID,0,
2011-06-10, 02:06:05,VALID,997.792,VALID,0,VALID,93.2492,VALID,0,VALID,22.9403,VALID,148,VALID,0,
2011-06-10, 02:07:05,VALID,997.784,VALID,0,VALID,93.2721,VALID,0,VALID,22.9403,VALID,148,VALID,0,
2011-06-10, 02:08:05,VALID,997.785,VALID,0,VALID,93.2874,VALID,0,VALID,22.9403,VALID,148,VALID,0,
2011-06-10, 02:09:05,VALID,997.823,VALID,0,VALID,93.3179,VALID,0,VALID,22.9793,VALID,102,VALID,0,
2011-06-10, 02:10:05,VALID,997.817,VALID,0,VALID,93.3179,VALID,0,VALID,22.9988,VALID,102,VALID,0,
2011-06-10, 02:11:05,VALID,997.798,VALID,0,VALID,93.3331,VALID,0,VALID,22.9776,VALID,102,VALID,0,
2011-06-10, 02:12:05,VALID,997.799,VALID,0,VALID,93.3179,VALID,0,VALID,22.9385,VALID,101,VALID,0,
2011-06-10, 02:13:05,VALID,997.847,VALID,0,VALID,93.2797,VALID,0,VALID,22.9208,VALID,67,VALID,0,
2011-06-10, 02:14:05,VALID,997.842,VALID,0,VALID,93.295,VALID,0,VALID,22.9013,VALID,67,VALID,0,
2011-06-10, 02:15:05,VALID,997.814,VALID,0,VALID,93.2721,VALID,0,VALID,22.8623,VALID,67,VALID,0,
2011-06-10, 02:16:05,VALID,997.812,VALID,0,VALID,93.2263,VALID,0,VALID,22.8427,VALID,67,VALID,0,
2011-06-10, 02:17:05,VALID,997.82,VALID,0,VALID,93.2263,VALID,0,VALID,22.8427,VALID,67,VALID,0,
2011-06-10, 02:18:05,VALID,997.823,VALID,0,VALID,93.2187,VALID,0,VALID,22.8232,VALID,67,VALID,0,
2011-06-10, 02:19:05,VALID,997.826,VALID,0,VALID,93.2034,VALID,0,VALID,22.7842,VALID,67,VALID,0,
2011-06-10, 02:20:05,VALID,997.843,VALID,0,VALID,93.2187,VALID,0,VALID,22.8232,VALID,67,VALID,0,
2011-06-10, 02:21:05,VALID,997.85,VALID,0,VALID,93.2187,VALID,0.112286,VALID,22.802,VALID,67,VALID,0,
2011-06-10, 02:22:05,VALID,997.862,VALID,0,VALID,93.2416,VALID,0,VALID,22.8232,VALID,67,VALID,0,
2011-06-10, 02:23:05,VALID,997.832,VALID,0,VALID,93.2568,VALID,0,VALID,22.8232,VALID,67,VALID,0,
2011-06-10, 02:24:05,VALID,997.829,VALID,0,VALID,93.2568,VALID,0,VALID,22.8232,VALID,67,VALID,0,
2011-06-10, 02:25:05,VALID,997.779,VALID,0,VALID,93.2797,VALID,0,VALID,22.8232,VALID,67,VALID,0,
2011-06-10, 02:26:05,VALID,997.803,VALID,0,VALID,93.2645,VALID,0,VALID,22.8232,VALID,67,VALID,0,
2011-06-10, 02:27:05,VALID,997.767,VALID,0,VALID,93.3026,VALID,0,VALID,22.8427,VALID,67,VALID,0,
2011-06-10, 02:28:05,VALID,997.757,VALID,0,VALID,93.3179,VALID,0,VALID,22.8427,VALID,67,VALID,0,
2011-06-10, 02:29:05,VALID,997.783,VALID,0,VALID,93.3179,VALID,0,VALID,22.8623,VALID,67,VALID,0,
2011-06-10, 02:30:05,VALID,997.773,VALID,0,VALID,93.3408,VALID,0,VALID,22.8215,VALID,67,VALID,0,
2011-06-10, 02:31:05,VALID,997.758,VALID,0,VALID,93.356,VALID,0,VALID,22.864,VALID,67,VALID,0,
2011-06-10, 02:32:05,VALID,997.802,VALID,0,VALID,93.3408,VALID,0,VALID,22.8232,VALID,67,VALID,0,
2011-06-10, 02:33:05,VALID,997.802,VALID,0,VALID,93.356,VALID,0,VALID,22.8427,VALID,67,VALID,0,
2011-06-10, 02:34:05,VALID,997.821,VALID,0,VALID,93.3789,VALID,0,VALID,22.8427,VALID,67,VALID,0,
2011-06-10, 02:35:05,VALID,997.833,VALID,0,VALID,93.3789,VALID,0,VALID,22.8427,VALID,67,VALID,0,
2011-06-10, 02:36:05,VALID,997.828,VALID,0,VALID,93.3866,VALID,0,VALID,22.802,VALID,67,VALID,0,
2011-06-10, 02:37:05,VALID,997.825,VALID,0,VALID,93.3866,VALID,0,VALID,22.8232,VALID,67,VALID,0,
2011-06-10, 02:38:05,VALID,997.842,VALID,0,VALID,93.3866,VALID,0,VALID,22.8232,VALID,67,VALID,0,
2011-06-10, 02:39:05,VALID,997.841,VALID,0,VALID,93.3942,VALID,0,VALID,22.7825,VALID,67,VALID,0,
2011-06-10, 02:40:05,VALID,997.847,VALID,0,VALID,93.4018,VALID,0,VALID,22.8055,VALID,67,VALID,0,
2011-06-10, 02:41:05,VALID,997.848,VALID,0,VALID,93.4171,VALID,0,VALID,22.8037,VALID,67,VALID,0,
2011-06-10, 02:42:05,VALID,997.849,VALID,0,VALID,93.3942,VALID,0,VALID,22.7842,VALID,67,VALID,0,
2011-06-10, 02:43:05,VALID,997.86,VALID,0,VALID,93.4247,VALID,0,VALID,22.7842,VALID,67,VALID,0,
2011-06-10, 02:44:05,VALID,997.849,VALID,0,VALID,93.4247,VALID,0,VALID,22.7842,VALID,67,VALID,0,
2011-06-10, 02:45:05,VALID,997.859,VALID,0,VALID,93.4323,VALID,0,VALID,22.7647,VALID,67,VALID,0,
2011-06-10, 02:46:05,VALID,997.867,VALID,0,VALID,93.4094,VALID,0,VALID,22.7257,VALID,67,VALID,0,
2011-06-10, 02:47:05,VALID,997.863,VALID,0,VALID,93.4171,VALID,0,VALID,22.7062,VALID,67,VALID,0,
2011-06-10, 02:48:05,VALID,997.869,VALID,0,VALID,93.4171,VALID,0,VALID,22.6867,VALID,67,VALID,0,
2011-06-10, 02:49:05,VALID,997.875,VALID,0,VALID,93.4247,VALID,0,VALID,22.6884,VALID,67,VALID,0,
2011-06-10, 02:50:05,VALID,997.899,VALID,0,VALID,93.4323,VALID,0,VALID,22.7062,VALID,67,VALID,0,
2011-06-10, 02:51:05,VALID,997.908,VALID,0,VALID,93.4628,VALID,0,VALID,22.7062,VALID,67,VALID,0,
2011-06-10, 02:52:05,VALID,997.923,VALID,0,VALID,93.4476,VALID,0,VALID,22.7062,VALID,67,VALID,0,
2011-06-10, 02:53:05,VALID,997.913,VALID,0,VALID,93.4705,VALID,0,VALID,22.6672,VALID,67,VALID,0,
2011-06-10, 02:54:05,VALID,997.938,VALID,0,VALID,93.4476,VALID,0,VALID,22.6477,VALID,67,VALID,0,
2011-06-10, 02:55:05,VALID,997.928,VALID,0,VALID,93.4476,VALID,0,VALID,22.6282,VALID,67,VALID,0,
2011-06-10, 02:56:05,VALID,997.924,VALID,0,VALID,93.44,VALID,0,VALID,22.6087,VALID,67,VALID,0,
2011-06-10, 02:57:05,VALID,997.952,VALID,0,VALID,93.4323,VALID,0,VALID,22.5892,VALID,67,VALID,0,
2011-06-10, 02:58:05,VALID,997.943,VALID,0,VALID,93.4476,VALID,0,VALID,22.5892,VALID,67,VALID,0,
2011-06-10, 02:59:05,VALID,997.956,VALID,0,VALID,93.4323,VALID,0,VALID,22.5696,VALID,67,VALID,0,
2011-06-10, 03:00:05,VALID,997.951,VALID,0,VALID,93.4323,VALID,0,VALID,22.5501,VALID,67,VALID,0,
2011-06-10, 03:01:04,VALID,997.953,VALID,0,VALID,93.4323,VALID,0,VALID,22.5501,VALID,67,VALID,0,
2011-06-10, 03:02:04,VALID,997.934,VALID,0,VALID,93.4323,VALID,0,VALID,22.5306,VALID,67,VALID,0,
2011-06-10, 03:03:04,VALID,997.972,VALID,0,VALID,93.44,VALID,0,VALID,22.5306,VALID,87,VALID,0,
2011-06-10, 03:04:04,VALID,997.957,VALID,0,VALID,93.4934,VALID,0,VALID,22.5696,VALID,101,VALID,0,
2011-06-10, 03:05:04,VALID,997.958,VALID,0,VALID,93.4934,VALID,0,VALID,22.5696,VALID,105,VALID,0,
2011-06-10, 03:06:04,VALID,997.942,VALID,0,VALID,93.4857,VALID,0,VALID,22.5892,VALID,127,VALID,1.01172,
2011-06-10, 03:07:04,VALID,997.936,VALID,0,VALID,93.5086,VALID,0,VALID,22.5892,VALID,128,VALID,1.25312,
2011-06-10, 03:08:04,VALID,997.944,VALID,0,VALID,93.5086,VALID,0,VALID,22.5892,VALID,139,VALID,1.09492,
2011-06-10, 03:09:04,VALID,997.95,VALID,0,VALID,93.5086,VALID,0,VALID,22.5679,VALID,141,VALID,0.610547,
2011-06-10, 03:10:04,VALID,997.945,VALID,0,VALID,93.5468,VALID,0,VALID,22.6087,VALID,154,VALID,0.262891,
2011-06-10, 03:11:04,VALID,997.96,VALID,0,VALID,93.5315,VALID,0,VALID,22.6477,VALID,170,VALID,0,
2011-06-10, 03:12:04,VALID,997.947,VALID,0,VALID,93.5315,VALID,0,VALID,22.6867,VALID,287,VALID,0.583203,
2011-06-10, 03:13:04,VALID,997.967,VALID,0,VALID,93.5468,VALID,0,VALID,22.6477,VALID,318,VALID,0.726172,
2011-06-10, 03:14:04,VALID,997.997,VALID,0,VALID,93.5468,VALID,0,VALID,22.6069,VALID,343,VALID,0.630859,
2011-06-10, 03:15:04,VALID,997.999,VALID,0,VALID,93.5697,VALID,0,VALID,22.6087,VALID,10,VALID,1.14922,
2011-06-10, 03:16:04,VALID,998.001,VALID,0,VALID,93.562,VALID,0,VALID,22.6282,VALID,11,VALID,1.22461,
2011-06-10, 03:17:04,VALID,998.004,VALID,0,VALID,93.5773,VALID,0.112286,VALID,22.6655,VALID,43,VALID,1.51094,
2011-06-10, 03:18:04,VALID,998.016,VALID,0,VALID,93.5697,VALID,0,VALID,22.7452,VALID,50,VALID,1.13633,
2011-06-10, 03:19:04,VALID,997.999,VALID,0,VALID,93.5697,VALID,0,VALID,22.7647,VALID,77,VALID,1.09961,
2011-06-10, 03:20:04,VALID,997.955,VALID,0,VALID,93.5697,VALID,0,VALID,22.8037,VALID,113,VALID,1.13281,
2011-06-10, 03:21:04,VALID,997.965,VALID,0,VALID,93.5544,VALID,0,VALID,22.8037,VALID,123,VALID,1.03008,
2011-06-10, 03:22:04,VALID,997.969,VALID,0,VALID,93.5315,VALID,0,VALID,22.8037,VALID,131,VALID,1.20703,
2011-06-10, 03:23:04,VALID,997.948,VALID,0,VALID,93.5163,VALID,0,VALID,22.8623,VALID,135,VALID,1.26055,
2011-06-10, 03:24:04,VALID,997.968,VALID,0,VALID,93.4934,VALID,0,VALID,22.9013,VALID,133,VALID,0.819922,
2011-06-10, 03:25:04,VALID,997.964,VALID,0,VALID,93.4476,VALID,0.112286,VALID,22.8995,VALID,120,VALID,0.812891,
2011-06-10, 03:26:04,VALID,997.992,VALID,0,VALID,93.4094,VALID,0,VALID,22.9403,VALID,109,VALID,0.411328,
2011-06-10, 03:27:04,VALID,998.049,VALID,0,VALID,93.3331,VALID,0,VALID,22.9403,VALID,59,VALID,0.558984,
2011-06-10, 03:28:04,VALID,998.049,VALID,0,VALID,93.2797,VALID,0,VALID,22.9403,VALID,21,VALID,0.865234,
2011-06-10, 03:29:04,VALID,998.046,VALID,0,VALID,93.1882,VALID,0,VALID,22.9208,VALID,17,VALID,0.851563,
2011-06-10, 03:30:04,VALID,998.042,VALID,0,VALID,93.1119,VALID,0,VALID,22.9403,VALID,17,VALID,0.766797,
2011-06-10, 03:31:04,VALID,998.058,VALID,0,VALID,93.0585,VALID,0,VALID,22.8995,VALID,17,VALID,0.59375,
2011-06-10, 03:32:04,VALID,998.073,VALID,0,VALID,93.0127,VALID,0,VALID,22.9208,VALID,17,VALID,0.584766,
2011-06-10, 03:33:04,VALID,998.076,VALID,0,VALID,92.9745,VALID,0.112286,VALID,22.9013,VALID,17,VALID,0.489453,
2011-06-10, 03:34:04,VALID,998.075,VALID,0,VALID,92.9364,VALID,0,VALID,22.9013,VALID,17,VALID,0.523438,
2011-06-10, 03:35:04,VALID,998.062,VALID,0,VALID,92.883,VALID,0,VALID,22.8818,VALID,24,VALID,0.453516,
2011-06-10, 03:36:04,VALID,998.059,VALID,0,VALID,92.883,VALID,0,VALID,22.8818,VALID,62,VALID,1.01602,
2011-06-10, 03:37:04,VALID,998.054,VALID,0,VALID,92.8677,VALID,0,VALID,22.9208,VALID,74,VALID,1.12305,
2011-06-10, 03:38:04,VALID,998.055,VALID,0,VALID,92.8448,VALID,0.112286,VALID,22.919,VALID,74,VALID,1.19375,
2011-06-10, 03:39:04,VALID,998.068,VALID,0,VALID,92.7991,VALID,0,VALID,22.919,VALID,74,VALID,1.0875,
2011-06-10, 03:40:04,VALID,998.091,VALID,0,VALID,92.7533,VALID,0,VALID,22.9385,VALID,59,VALID,0.995313,
2011-06-10, 03:41:04,VALID,998.088,VALID,0,VALID,92.6923,VALID,0.112286,VALID,22.9793,VALID,45,VALID,1.12109,
2011-06-10, 03:42:04,VALID,998.103,VALID,0,VALID,92.6388,VALID,0,VALID,22.9403,VALID,43,VALID,0.909766,
2011-06-10, 03:43:04,VALID,998.083,VALID,0,VALID,92.6236,VALID,0,VALID,22.9208,VALID,43,VALID,0.660547,
2011-06-10, 03:44:04,VALID,998.128,VALID,0,VALID,92.6083,VALID,0,VALID,22.9013,VALID,43,VALID,0.666797,
2011-06-10, 03:45:04,VALID,998.094,VALID,0,VALID,92.6388,VALID,0,VALID,22.9013,VALID,43,VALID,0.692969,
2011-06-10, 03:46:04,VALID,998.135,VALID,0,VALID,92.677,VALID,0,VALID,22.8818,VALID,43,VALID,0.659375,
2011-06-10, 03:47:04,VALID,998.164,VALID,0,VALID,92.7075,VALID,0,VALID,22.8818,VALID,43,VALID,0.527734,
2011-06-10, 03:48:04,VALID,998.198,VALID,0,VALID,92.7457,VALID,0,VALID,22.9013,VALID,43,VALID,0.282031,
2011-06-10, 03:49:04,VALID,998.208,VALID,0,VALID,92.7838,VALID,0,VALID,22.9013,VALID,43,VALID,0,
2011-06-10, 03:50:04,VALID,998.23,VALID,0,VALID,92.8067,VALID,0.112286,VALID,22.88,VALID,43,VALID,0,
2011-06-10, 03:51:04,VALID,998.253,VALID,0,VALID,92.7991,VALID,0,VALID,22.8995,VALID,43,VALID,0,
2011-06-10, 03:52:04,VALID,998.262,VALID,0,VALID,92.8448,VALID,0,VALID,22.9013,VALID,43,VALID,0,
2011-06-10, 03:53:04,VALID,998.287,VALID,0,VALID,92.8525,VALID,0,VALID,22.9013,VALID,43,VALID,0,